STARLINK-32751, 62753

Orbit data source: Space-Track

STARLINK-32751, 62753 is a payload satellite owned by SpaceX/Seattle (US) in LEO that was launched on Tue, 21 Jan 2025 UTC via an FALCON 9 launch vehicle from the Air Force Eastern Test Range (AFETR). Payload-class satellites include a variety of spacecraft equipped with specific instruments for various scientific and technological missions. These include communications satellites like Starlink; space stations such as the ISS; scientific satellites like the Hubble; Earth observation satellites from companies like Planet Labs, Umbra, and HawkEye 360; GPS; miniature CubeSats for education and research; and military/defense satellites.

Loading next visibility...
Identifier
62753, 2025-014U
Orbit
LEO
Country
Flag of USUS
Related business
Manufacturer
SpaceX/Seattle
Mission
Operational Commercial Communications
Bus & Motor
STARLINK V2M, Unknown motor
Mass
730 kg wet, ~700 kg dry
Launch date (UTC)
2025-01-21 (11 months ago)
Launch vehicle
FALCON 9
Launch site
Air Force Eastern Test Range (AFETR)
Object type
Payload
Rocket body
Debris
Shape & HBR
Box + 2 Pan, 17.7 m
Radar Cross Section
33.884 m², Large (>1 m²)

Expand to show TLE details & history
Last TLE update: 19 hours ago

TLE from 19 hours ago
0 STARLINK-32751
1 62753U 25014U   25348.81754086  .00019140  00000-0  70327-3 0  9993
2 62753  42.9932 274.0162 0000215 339.7092  20.3751 15.27578379 50273
Epoch: 2025-12-14T19:37Z
TLE epoch observation values (Epoch: 2025-12-14T19:37:15.530Z)
Latitude
-0.00001°
Longitude
-104.02353°
Altitude
482.69 km
Speed
7.626 km/s
True Right ascension
18h 16m 03s
True Declination
0° 00' 00"
Sunlit
Object was in daylight at epoch
Visualization orbit readout
Latitude
Unknown
Longitude
Unknown
Altitude
Unknown
Speed
Unknown
Apparent Right ascension
Unknown
Apparent Declination
Unknown
Sunlit
N/A
Visualization observer readout
Local Sidereal Time
13:19:49
Azimuth
Unknown
Elevation
Unknown
Doppler factor
Unknown
Orbital elements
Apogee altitude
485.148 km
Perigee altitude
484.853 km
Semi-major axis
6,863.137 km
Eccentricity
0.00002
Inclination
42.9932°
RAAN
274.0162°
Arg. of periapsis
339.7092°
True anomaly
20.37596°
Mean anomaly
20.3751°
Eccentric anomaly
20.37553°
Mean motion
3.81733 °/min
Orbital period
94.31 mins
BSTAR
0.00070327
Loading maneuver chart data...
Computing Atmospheric mass density...
Loading historical data...
Loading historical data...
Loading historical data...
Loading historical data...
Loading historical data...
Loading historical data...
Loading historical data...

Documentation

Showing up to 5 results
|